WA2GUG Weather Reports


Display with metric or nautical units.
time (UTC)temp
F
wind
direction
speed
MPH
gust
MPH
rain 1hr
in
rain 24hr
in
rain mn
in
humidity
%
barometer
mb
20260507073424 0 72 0.0 0.0 0.00 0.00 0.00 99 1006.2
20260507072924 0 45 0.0 0.0 0.00 0.00 0.00 99 1007.0
20260507072424 0 76 0.0 1.0 0.00 0.00 0.00 99 1006.2
20260507071924 0 41 0.0 1.0 0.00 0.00 0.00 99 1007.0
20260507071424 0 50 0.0 1.0 0.00 0.00 0.00 99 1007.0
20260507070924 0 44 0.0 1.0 0.00 0.00 0.00 99 1007.0
20260507070424 0 61 0.0 1.0 0.00 0.00 0.00 99 1006.2
20260507065924 0 79 0.0 1.0 0.00 0.00 0.00 99 1006.0
20260507065424 0 55 0.0 0.0 0.00 0.00 0.00 99 1006.1
20260507064924 0 53 0.0 0.0 0.00 0.00 0.00 99 1007.0
20260507064424 0 69 0.0 4.0 0.00 0.00 0.00 99 1006.2
20260507063924 0 67 0.0 4.0 0.00 0.00 0.00 99 1006.2
20260507063424 0 76 0.0 1.0 0.00 0.00 0.00 99 1006.1
20260507062924 0 54 0.0 0.0 0.00 0.00 0.00 99 1006.1
20260507062424 0 51 0.0 0.0 0.00 0.00 0.00 99 1006.2
20260507061924 0 46 0.0 0.0 0.00 0.00 0.00 99 1007.0
20260507061424 0 54 0.0 0.0 0.00 0.00 0.00 99 1006.1
20260507060924 0 76 0.0 0.0 0.00 0.00 0.00 99 1007.0
20260507060424 0 67 0.0 0.0 0.00 0.00 0.00 99 1006.2
20260507055924 0 76 0.0 0.0 0.00 0.00 0.00 99 1006.2
20260507055424 0 72 0.0 0.0 0.00 0.00 0.00 99 1006.1
20260507054924 0 36 0.0 0.0 0.00 0.00 0.00 99 1006.1
20260507054424 0 91 0.0 0.0 0.00 0.00 0.00 99 1006.2
20260507053924 0 136 0.0 0.0 0.00 0.00 0.00 99 1007.0
20260507053424 0 90 0.0 0.0 0.00 0.00 0.00 99 1006.2
20260507052924 0 140 0.0 0.0 0.00 0.00 0.00 99 1007.0
20260507052424 0 93 0.0 0.0 0.00 0.00 0.00 99 1006.1
20260507051924 0 106 0.0 0.0 0.00 0.00 0.00 99 1006.0
20260507051424 0 144 0.0 0.0 0.00 0.00 0.00 99 1006.2
20260507050924 0 96 0.0 0.0 0.00 0.00 0.00 99 1007.0
20260507050423 0 87 0.0 0.0 0.00 0.00 0.00 99 1006.2
20260507045923 0 151 0.0 1.0 0.00 0.00 0.00 99 1007.0
20260507045423 0 79 0.0 1.0 0.00 0.00 0.00 99 1006.2
20260507044923 0 85 0.0 0.0 0.00 0.00 0.00 99 1007.0
20260507044423 0 75 0.0 0.0 0.00 0.00 0.00 99 1006.2
20260507043923 0 137 0.0 0.0 0.00 0.00 0.00 99 1007.0
20260507043424 0 13 0.0 0.0 0.00 0.00 0.00 99 1006.2
20260507042923 0 183 0.0 0.0 0.00 0.00 0.00 99 1007.0
20260507042423 0 6 0.0 0.0 0.00 0.00 0.00 99 1006.2
20260507041923 0 101 0.0 0.0 0.00 0.00 0.00 99 1007.0
20260507041423 0 182 0.0 0.0 0.00 0.00 0.00 99 1006.2
20260507040923 0 76 0.0 0.0 0.00 0.00 0.00 99 1007.0
20260507040423 0 200 0.0 0.0 0.00 0.00 0.00 99 1006.2
20260507035923 0 70 0.0 0.0 0.00 0.00 0.00 99 1007.0
20260507035423 0 51 0.0 0.0 0.00 0.00 0.00 99 1006.2
20260507034923 0 38 0.0 0.0 0.00 0.00 0.00 99 1007.0
20260507034423 0 2 0.0 0.0 0.00 0.00 0.00 99 1006.2
20260507033923 0 47 0.0 0.0 0.00 0.00 0.00 99 1006.2
20260507033424 0 179 0.0 0.0 0.00 0.00 0.00 99 1006.2
20260507032923 0 153 0.0 0.0 0.00 0.00 0.00 99 1007.0
20260507032423 0 88 0.0 0.0 0.00 0.00 0.00 99 1006.2
20260507031923 0 81 0.0 2.0 0.00 0.00 0.00 99 1007.0
20260507031426 0 77 0.0 2.0 0.00 0.00 0.00 99 1007.0
20260507030923 0 83 0.0 0.0 0.00 0.00 0.00 99 1007.0
20260507030423 0 51 0.0 0.0 0.00 0.00 0.00 99 1006.2
20260507025923 0 49 0.0 0.0 0.00 0.00 0.00 99 1007.0
20260507025423 0 55 0.0 0.0 0.00 0.00 0.00 99 1006.2
20260507024923 0 59 0.0 0.0 0.00 0.00 0.00 99 1007.0
20260507024423 0 170 0.0 0.0 0.00 0.00 0.00 99 1006.2
20260507023923 0 73 0.0 0.0 0.00 0.00 0.00 99 1007.0
20260507023424 0 67 0.0 0.0 0.00 0.00 0.00 99 1006.2
20260507022923 0 135 0.0 0.0 0.00 0.00 0.00 99 1007.0
20260507022423 0 68 0.0 0.0 0.00 0.00 0.00 99 1006.2
20260507021923 49 47 0.0 0.0 0.00 0.00 0.00 99 1007.0
20260507021423 49 49 0.0 0.0 0.00 0.00 0.00 99 1007.0
20260507020923 0 87 0.0 0.0 0.00 0.00 0.00 99 1007.0
20260507020423 0 53 0.0 0.0 0.00 0.00 0.00 99 1007.0
20260507015923 0 98 0.0 0.0 0.00 0.00 0.00 99 1007.0
20260507015423 0 45 0.0 0.0 0.00 0.00 0.00 99 1007.0
20260507014923 0 176 0.0 0.0 0.00 0.00 0.00 99 1007.0
20260507014423 0 52 0.0 0.0 0.00 0.00 0.00 99 1006.2
20260507013923 0 46 0.0 0.0 0.00 0.00 0.00 99 1007.0
20260507013423 0 140 0.0 0.0 0.00 0.00 0.00 99 1006.2
20260507012923 0 35 0.0 0.0 0.00 0.00 0.00 99 1007.0
20260507012423 0 170 0.0 0.0 0.00 0.00 0.00 99 1006.2
20260507011923 0 82 0.0 0.0 0.00 0.00 0.00 99 1007.0
20260507011423 0 51 0.0 0.0 0.00 0.00 0.00 99 1007.0
20260507010923 0 80 0.0 0.0 0.00 0.00 0.00 99 1007.0
20260507010423 0 75 0.0 0.0 0.00 0.00 0.00 99 1007.0
20260507005923 49 72 0.0 0.0 0.00 0.00 0.00 99 1006.1
20260507005423 50 77 0.0 0.0 0.00 0.00 0.00 99 1006.1
20260507004923 0 62 0.0 0.0 0.00 0.00 0.00 99 1006.0
20260507004423 50 75 0.0 0.0 0.00 0.00 0.00 99 1006.0
20260507003923 50 79 0.0 0.0 0.00 0.00 0.00 99 1006.0
20260507003423 50 77 0.0 1.0 0.00 0.00 0.00 99 1006.0
20260507002923 50 80 0.0 1.0 0.00 0.00 0.00 99 1006.0
20260507002423 50 43 0.0 1.0 0.00 0.00 0.00 99 1006.0
20260507001923 49 73 0.0 10.0 0.00 0.00 0.00 99 1006.0
20260507001423 49 67 2.0 10.0 0.00 0.00 0.00 99 1006.0
20260507000923 49 48 1.0 8.0 0.00 0.00 0.00 99 1006.0
20260507000423 49 71 0.0 4.0 0.00 0.00 0.00 99 1006.0
20260506235923 49 81 0.0 0.0 0.00 0.00 0.00 99 1006.0
20260506235423 49 43 0.0 0.0 0.00 0.00 0.00 99 1006.0
20260506234923 49 89 0.0 3.0 0.00 0.00 0.00 99 1005.2
20260506234423 49 83 0.0 3.0 0.00 0.00 0.00 99 1006.0
20260506233923 49 48 0.0 3.0 0.00 0.00 0.00 99 1005.2
20260506233423 50 54 0.0 3.0 0.00 0.00 0.00 99 1005.2
20260506232423 51 51 0.0 5.0 0.00 0.00 0.00 99 1005.0
20260506231923 51 78 0.0 3.0 0.00 0.00 0.00 99 1005.0
20260506231423 51 53 0.0 3.0 0.00 0.00 0.00 99 1005.0
20260506230423 0 66 0.0 3.0 0.00 0.00 0.00 99 1005.0
20260506225923 0 75 0.0 4.0 0.00 0.00 0.00 99 1005.0
20260506225423 0 45 1.0 5.0 0.00 0.00 0.00 99 1005.0
20260506224923 0 63 2.0 5.0 0.00 0.00 0.00 99 1005.0
20260506224423 0 53 1.0 5.0 0.00 0.00 0.00 99 1005.0
20260506223923 0 48 0.0 5.0 0.00 0.00 0.00 99 1005.0
20260506223423 0 76 0.0 4.0 0.00 0.00 0.00 99 1005.0
20260506222923 0 44 0.0 3.0 0.00 0.00 0.00 99 1005.0
20260506222423 0 51 1.0 3.0 0.00 0.00 0.00 99 1005.0
20260506221923 0 46 0.0 5.0 0.00 0.00 0.00 99 1004.2
20260506221423 0 87 0.0 5.0 0.00 0.00 0.00 99 1004.1
20260506220923 0 37 1.0 4.0 0.00 0.00 0.00 99 1004.1
20260506220423 61 85 1.0 5.0 0.00 0.00 0.00 99 1004.0
20260506215923 0 128 2.0 5.0 0.00 0.00 0.00 99 1004.0
20260506215423 0 102 0.0 2.0 0.00 0.00 0.00 99 1004.0
20260506214923 0 210 0.0 0.0 0.00 0.00 0.00 99 1004.0
20260506214423 0 223 0.0 2.0 0.00 0.00 0.00 99 1003.2
20260506213923 0 223 0.0 2.0 0.00 0.00 0.00 99 1004.0
20260506213423 63 227 0.0 1.0 0.00 0.00 0.00 99 1003.2
20260506212923 0 190 0.0 0.0 0.00 0.00 0.00 99 1003.2
20260506212423 63 207 0.0 0.0 0.00 0.00 0.00 99 1003.2
20260506211923 63 218 0.0 2.0 0.00 0.00 0.00 99 1004.0
20260506211423 63 235 0.0 2.0 0.00 0.00 0.00 99 1004.0
20260506210923 63 213 0.0 2.0 0.00 0.00 0.00 99 1003.2
20260506210423 63 225 0.0 0.0 0.00 0.00 0.00 99 1003.2
20260506205923 63 227 0.0 0.0 0.00 0.00 0.00 99 1003.1
20260506205423 63 231 0.0 0.0 0.00 0.00 0.00 99 1003.0
20260506204923 63 231 0.0 1.0 0.00 0.00 0.00 99 1003.0
20260506204423 63 235 0.0 3.0 0.00 0.00 0.00 99 1003.0
20260506203423 63 228 1.0 5.0 0.00 0.00 0.00 99 1003.1
20260506202923 63 235 1.0 5.0 0.00 0.00 0.00 99 1003.2
20260506202423 63 240 0.0 3.0 0.00 0.00 0.00 99 1003.2
20260506201923 64 183 0.0 3.0 0.00 0.00 0.00 99 1003.0
20260506201423 64 222 0.0 0.0 0.00 0.00 0.00 99 1003.1
20260506200923 64 210 0.0 0.0 0.00 0.00 0.00 99 1003.1
20260506200423 63 213 0.0 0.0 0.00 0.00 0.00 99 1003.2
20260506195923 63 215 0.0 0.0 0.00 0.00 0.00 99 1003.2
20260506195423 63 185 0.0 0.0 0.00 0.00 0.00 99 1003.2
20260506194923 64 235 0.0 1.0 0.00 0.00 0.00 99 1004.0
20260506194423 64 231 0.0 3.0 0.00 0.00 0.00 99 1004.0
20260506193923 64 230 1.0 3.0 0.00 0.00 0.00 99 1004.0
20260506193423 64 230 1.0 3.0 0.00 0.00 0.00 99 1003.2
20260506192923 64 237 1.0 2.0 0.00 0.00 0.00 99 1003.2
20260506192423 64 205 1.0 2.0 0.00 0.00 0.00 99 1004.0
20260506191923 64 233 1.0 2.0 0.00 0.00 0.00 99 1003.2
20260506191423 64 236 0.0 2.0 0.00 0.00 0.00 99 1004.0
20260506190923 63 222 0.0 2.0 0.00 0.00 0.00 99 1004.0
20260506190423 63 226 0.0 6.0 0.00 0.00 0.00 99 1004.0
20260506185923 63 183 2.0 6.0 0.00 0.00 0.00 99 1003.2
20260506185423 0 181 1.0 3.0 0.00 0.00 0.00 99 1004.0
20260506184923 0 225 1.0 3.0 0.00 0.00 0.00 99 1004.0
20260506184423 0 211 0.0 3.0 0.00 0.00 0.00 99 1004.0
20260506183923 0 230 1.0 3.0 0.00 0.00 0.00 99 1004.0
20260506183423 0 214 1.0 4.0 0.00 0.00 0.00 99 1004.0
20260506182923 0 226 2.0 4.0 0.00 0.00 0.00 99 1004.0
20260506182423 0 231 2.0 4.0 0.00 0.00 0.00 99 1004.0
20260506181923 0 240 1.0 5.0 0.00 0.00 0.00 99 1004.0
20260506181423 0 207 2.0 5.0 0.00 0.00 0.00 99 1004.0
20260506180923 63 226 1.0 4.0 0.00 0.00 0.00 99 1004.0
20260506180423 0 221 1.0 4.0 0.00 0.00 0.00 99 1004.0
20260506175923 0 231 1.0 3.0 0.00 0.00 0.00 99 1004.0
20260506175423 63 179 1.0 3.0 0.00 0.00 0.00 99 1004.0
20260506174923 63 219 2.0 5.0 0.00 0.00 0.00 99 1004.0
20260506174423 63 178 2.0 5.0 0.00 0.00 0.00 99 1004.0
20260506173923 63 267 2.0 5.0 0.00 0.00 0.00 99 1004.0
20260506173423 63 229 2.0 5.0 0.00 0.00 0.00 99 1004.0
20260506172923 63 221 2.0 8.0 0.00 0.00 0.00 99 1004.0
20260506171923 0 229 2.0 6.0 0.00 0.00 0.00 99 1004.0
20260506171423 0 234 2.0 6.0 0.00 0.00 0.00 99 1004.0
20260506170923 0 221 2.0 5.0 0.00 0.00 0.00 99 1004.0
20260506170423 0 223 1.0 4.0 0.00 0.00 0.00 99 1004.0
20260506165923 0 224 1.0 4.0 0.00 0.00 0.00 99 1004.0
20260506165423 0 228 0.0 0.0 0.00 0.00 0.00 99 1004.0
20260506164923 0 217 0.0 0.0 0.00 0.00 0.00 99 1004.0
20260506164423 0 221 0.0 0.0 0.00 0.00 0.00 99 1004.0
20260506163923 0 226 0.0 0.0 0.00 0.00 0.00 99 1004.0
20260506163423 0 224 0.0 0.0 0.00 0.00 0.00 99 1004.0
20260506162923 0 226 0.0 0.0 0.00 0.00 0.00 99 1004.1
20260506162423 0 204 0.0 0.0 0.00 0.00 0.00 99 1005.0
20260506161923 0 182 0.0 0.0 0.00 0.00 0.00 99 1005.0
20260506161423 0 175 0.0 0.0 0.00 0.00 0.00 99 1005.0
20260506160923 0 190 0.0 0.0 0.00 0.00 0.00 99 1004.2
20260506160423 0 239 0.0 0.0 0.00 0.00 0.00 99 1004.2
20260506155923 0 235 0.0 0.0 0.00 0.00 0.00 99 1005.0
20260506155423 60 220 0.0 0.0 0.00 0.00 0.00 99 1004.2
20260506154923 60 232 0.0 0.0 0.00 0.00 0.00 99 1005.0
20260506154423 60 324 0.0 0.0 0.00 0.00 0.00 99 1005.0
20260506153923 59 269 0.0 0.0 0.00 0.00 0.00 99 1005.0
20260506153423 59 265 0.0 0.0 0.00 0.00 0.00 99 1005.0
20260506152923 59 300 0.0 0.0 0.00 0.00 0.00 99 1005.0
20260506152423 59 279 0.0 0.0 0.00 0.00 0.00 99 1004.2
20260506151923 59 261 0.0 0.0 0.00 0.00 0.00 99 1005.0
20260506151422 59 273 0.0 0.0 0.00 0.00 0.00 99 1005.0
20260506150922 59 94 0.0 0.0 0.00 0.00 0.00 99 1005.0
20260506150422 58 60 0.0 0.0 0.00 0.00 0.00 99 1005.0
20260506145922 58 74 0.0 0.0 0.00 0.00 0.00 99 1005.0
20260506145422 58 160 0.0 0.0 0.00 0.00 0.00 99 1005.0
20260506144422 58 157 0.0 0.0 0.00 0.00 0.00 99 1005.0
20260506143922 58 41 0.0 0.0 0.00 0.00 0.00 99 1005.0
20260506143423 57 284 0.0 0.0 0.00 0.00 0.00 99 1005.0
20260506142922 57 334 0.0 0.0 0.00 0.00 0.00 99 1005.0
20260506142422 57 148 0.0 0.0 0.00 0.00 0.00 99 1005.0
20260506141922 57 94 0.0 0.0 0.00 0.00 0.00 99 1005.0
20260506141422 58 148 0.0 0.0 0.00 0.00 0.00 99 1005.0
20260506140922 58 131 0.0 0.0 0.00 0.00 0.00 99 1005.0
20260506140422 58 345 0.0 0.0 0.00 0.00 0.00 99 1005.2
20260506135922 58 340 0.0 0.0 0.00 0.00 0.00 99 1005.1
20260506135422 59 352 0.0 0.0 0.00 0.00 0.00 99 1005.0
20260506134922 59 245 0.0 0.0 0.00 0.00 0.00 99 1005.0
20260506134422 60 74 0.0 0.0 0.00 0.00 0.00 99 1005.0
20260506133922 61 67 0.0 0.0 0.00 0.00 0.00 99 1005.0
20260506133423 62 149 0.0 0.0 0.00 0.00 0.00 99 1005.0
20260506132922 62 150 0.0 0.0 0.00 0.00 0.00 99 1005.0
20260506132422 62 74 0.0 0.0 0.00 0.00 0.00 99 1005.0
20260506131922 62 91 0.0 0.0 0.00 0.00 0.00 99 1005.0
20260506131422 62 137 0.0 0.0 0.00 0.00 0.00 99 1005.0
20260506130922 62 107 0.0 0.0 0.00 0.00 0.00 99 1005.0
20260506130422 61 130 0.0 0.0 0.00 0.00 0.00 99 1005.0
20260506125922 60 338 0.0 0.0 0.00 0.00 0.00 99 1005.0
20260506125422 59 64 0.0 0.0 0.00 0.00 0.00 99 1005.0
20260506124922 58 254 0.0 0.0 0.00 0.00 0.00 99 1005.0
20260506124422 57 222 0.0 0.0 0.00 0.00 0.00 99 1005.0
20260506123922 57 160 0.0 0.0 0.00 0.00 0.00 99 1005.0
20260506123422 57 232 0.0 0.0 0.00 0.00 0.00 99 1005.0
20260506122922 56 59 0.0 0.0 0.00 0.00 0.00 99 1005.0
20260506122422 56 30 0.0 0.0 0.00 0.00 0.00 99 1005.1
20260506121922 56 349 0.0 0.0 0.00 0.00 0.00 99 1006.0
20260506121422 56 104 0.0 0.0 0.00 0.00 0.00 99 1005.2
20260506120923 55 78 0.0 0.0 0.00 0.00 0.00 99 1005.2
20260506120422 55 76 0.0 0.0 0.00 0.00 0.00 99 1006.0
20260506115922 55 88 0.0 0.0 0.00 0.00 0.00 99 1005.2
20260506115422 55 102 0.0 0.0 0.00 0.00 0.00 99 1006.0
20260506114922 55 94 0.0 0.0 0.00 0.00 0.00 99 1006.0
20260506114422 55 90 0.0 0.0 0.00 0.00 0.00 99 1005.2
20260506113922 55 123 0.0 0.0 0.00 0.00 0.00 99 1005.1
20260506113422 55 129 0.0 0.0 0.00 0.00 0.00 99 1005.1
20260506112922 55 131 0.0 0.0 0.00 0.00 0.00 99 1005.1
20260506112422 54 290 0.0 0.0 0.00 0.00 0.00 99 1005.1
20260506111922 54 288 0.0 0.0 0.00 0.00 0.00 99 1005.0
20260506111422 54 135 0.0 0.0 0.00 0.00 0.00 99 1005.0
20260506110922 54 180 0.0 0.0 0.00 0.00 0.00 99 1005.0
20260506110422 53 175 0.0 0.0 0.00 0.00 0.00 99 1005.0
20260506105422 53 139 0.0 0.0 0.00 0.00 0.00 99 1005.2
20260506104922 53 301 0.0 0.0 0.00 0.00 0.00 99 1005.1
20260506103922 52 123 0.0 0.0 0.00 0.00 0.00 99 1005.0
20260506103422 52 183 0.0 0.0 0.00 0.00 0.00 99 1005.0
20260506102922 52 103 0.0 0.0 0.00 0.00 0.00 99 1005.0
20260506102422 52 133 0.0 0.0 0.00 0.00 0.00 99 1005.0
20260506101922 52 191 0.0 0.0 0.00 0.00 0.00 99 1005.0
20260506101422 52 142 0.0 0.0 0.00 0.00 0.00 99 1005.0
20260506100922 52 171 0.0 0.0 0.00 0.00 0.00 99 1005.0
20260506100422 51 104 0.0 0.0 0.00 0.00 0.00 99 1005.0
20260506095922 51 157 0.0 0.0 0.00 0.00 0.00 99 1005.0
20260506095422 51 135 0.0 0.0 0.00 0.00 0.00 99 1005.0
20260506094922 51 147 0.0 0.0 0.00 0.00 0.00 99 1005.0
20260506094422 51 146 0.0 0.0 0.00 0.00 0.00 99 1005.0
20260506093922 51 211 0.0 0.0 0.00 0.00 0.00 99 1005.0
20260506093422 51 184 0.0 0.0 0.00 0.00 0.00 99 1005.0
20260506092922 51 186 0.0 0.0 0.00 0.00 0.00 99 1005.0
20260506092422 51 180 0.0 0.0 0.00 0.00 0.00 99 1005.0
20260506091922 51 180 0.0 0.0 0.00 0.00 0.00 99 1005.0
20260506091422 51 180 0.0 0.0 0.00 0.00 0.00 99 1005.0
20260506090922 51 180 0.0 0.0 0.00 0.00 0.00 99 1005.0
20260506090422 51 152 0.0 0.0 0.00 0.00 0.00 99 1005.0
20260506085922 51 161 0.0 0.0 0.00 0.00 0.00 99 1005.0
20260506085422 51 125 0.0 0.0 0.00 0.00 0.00 99 1005.0
20260506084922 51 135 0.0 0.0 0.00 0.00 0.00 99 1005.0
20260506084422 51 151 0.0 0.0 0.00 0.00 0.00 99 1005.1
20260506083922 51 180 0.0 0.0 0.00 0.00 0.00 99 1006.0
20260506083422 52 177 0.0 0.0 0.00 0.00 0.00 99 1006.0
20260506082922 52 157 0.0 0.0 0.00 0.00 0.00 99 1006.0
20260506082422 52 157 0.0 0.0 0.00 0.00 0.00 99 1006.0
20260506081922 52 178 0.0 0.0 0.00 0.00 0.00 99 1006.0
20260506081422 52 180 0.0 0.0 0.00 0.00 0.00 99 1006.0
20260506080922 52 164 0.0 0.0 0.00 0.00 0.00 99 1006.0
20260506080422 52 135 0.0 0.0 0.00 0.00 0.00 99 1005.2